TIMESTAMP,CO2_1_1_1,H2O_1_1_1,TAU_1_1_1,TAU_SSITC_TEST_1_1_1,H_1_1_1,H_SSITC_TEST_1_1_1,LE_1_1_1,LE_SSITC_TEST_1_1_1,FC_1_1_1,FC_SSITC_TEST_1_1_1,WD_0_0_1,WS_0_0_1,WS_MAX_0_0_1,U_SIGMA_0_0_1,V_SIGMA_0_0_1,W_SIGMA_0_0_1,USTAR_0_0_1,MO_LENGTH_0_0_1,ZL_0_0_1,FETCH_MAX_0_0_1,FETCH_70_0_0_1,FETCH_80_0_0_1,FETCH_90_0_0_1,PA_0_0_1,RH_0_0_1,TA_0_0_1,VPD_0_0_1,T_SONIC_0_0_1,T_SONIC_SIGMA_0_0_1
[yyyymmddHHMMSS],[mmolCO2 mol-1],[mmolH2O mol-1],[kg m-1 s-2],[#],[W m-2],[#],[W m-2],[#],[umolCO2 m-2 s-1],[#],[Decimal degrees],[m s-1],[m s-1],[m s-1],[m s-1],[m s-1],[m s-1],[m],[#],[m],[m],[m],[m],[kPa],[%],[deg C],[hPa],[deg C],[deg C]
20210819003000,396.72296282505238,19.504842127268919,6.7992163738355524E-002,0,-29.513070944581628,0,31.678185585291899,0,1.3314766558516968,0,176.93367730539853,1.7330623300600583,4.3729417893984088,0.57280405219918806,0.51657314172515623,0.39448600328480121,0.24961154814767531,44.085983718606990,0.43097597915186897,86.824313870952807,158.74253695073659,189.97427332037816,237.82524702975908,94.076795695746526,58.204482758620692,24.973103448275879,13.179978611445227,25.958809193081379,0.28168186192026340
20210819010000,399.04515659303303,19.754036401618205,7.9633342426453771E-002,0,-36.576421121671025,0,18.088747425542916,0,7.4133692929526855,0,173.26467264708512,1.8954512074648884,4.0729923307999085,0.56048531339779439,0.46589457891618241,0.36106797557295900,0.26964047058969770,44.848730618962612,0.42364632705940086,99.131524295722912,181.24404279065968,216.90282884598517,271.53660308917500,94.097121371093749,62.811000000000000,23.915999999999997,11.008482576058880,24.961512713962293,0.40547302902590660
20210819013000,399.83351771876539,19.887314771956927,7.2363401044244505E-002,0,-28.235483266002024,0,9.7064554618848895,0,8.0762819651295814,0,177.69199691162584,1.8948493904933619,4.1932649096622105,0.53905719848403677,0.51236241897499246,0.36097245086309826,0.25659984075882558,50.082437483471622,0.37937450640796877,95.297335787507649,174.23392334593720,208.51350628014077,261.03416674996862,94.131753244357640,66.856666666666669,22.998333333333335,9.2828266325257598,24.102148351033520,0.32900575394701864
20210819020000,399.91247177427323,19.739303308887511,6.3728866774198256E-002,0,-40.145872483170244,0,9.7104364548866204,0,10.599635202091571,0,174.79608166395599,2.0380275010910034,4.3935400769998241,0.56761351236516333,0.51504358111041060,0.34257240973158681,0.24053637027058569,29.021306342571499,0.65469141105232764,94.362099739173800,172.52401357134394,206.46718099700274,258.47241032127147,94.168285215070568,68.545666666666662,22.470000000000027,8.5320509826310591,23.587774924767700,0.36464530136446438
20210819023000,400.39683039298228,19.784126097306853,5.2045625047870699E-002,0,-29.061512536862729,0,1.7722716786979829,1,8.6447832884372069,0,176.38209447956339,2.0744736546147138,4.5078697418554823,0.55361915927022265,0.48629874421268826,0.34740981962206113,0.21712107743497691,29.490549845681532,0.64427418611804144,85.969186347506650,157.17909110894161,188.10322795738924,235.48292026161667,94.193101912977440,71.324333333333328,21.858999999999980,7.4942513036405760,22.971724151611397,0.33735553086008802
20210819030000,400.24112950098629,19.915937367636683,5.7494246483759871E-002,0,-37.561159594795477,0,1.1976439136535848,0,8.1268320030985137,0,178.47347855605423,2.0682012925333453,3.8189887304117591,0.49088832850337238,0.44805888779943392,0.30803650979877145,0.22805170786403661,26.443503374946836,0.71851296443575718,98.446392833732631,179.99140396666903,215.40374010208808,269.65992187015752,94.210090389539928,73.381666666666661,21.505333333333340,6.8078180422456311,22.648056460062662,0.31208213085482550
20210819033000,400.60785899413196,20.054528850760502,4.4551081158138314E-002,0,-27.510994525233414,0,2.8358756511373087,1,5.6717697741178155,0,171.63543202082255,2.0682214888568429,3.6657188156062785,0.45481486161576934,0.40869765873347097,0.28653248931659647,0.20065817760771298,24.596533492853119,0.77246657564655308,94.163218103174728,172.16039451069315,206.03202185100767,257.92764270834840,94.223165119574659,74.983333333333334,21.268333333333317,6.3059617276529387,22.407740434434686,0.34476183729619037
20210819040000,401.89819150521760,20.110549061833048,5.9797129407896298E-002,0,-37.590241305052245,0,2.1232204868897093,1,9.7960635614780180,0,166.79183249395845,2.2055292284682189,4.1347308571500019,0.48979294143457486,0.48750053033861912,0.32083917219611119,0.23236743738882609,27.956298027533339,0.67963218811329940,96.730894734590493,176.85492631138064,211.65017741627861,264.96090680147574,94.228403047721585,76.364333333333335,21.017333333333340,5.8667763140907461,22.167334848432063,0.36159330501504644
20210819043000,400.11740319433056,20.049031952830479,4.1381188167766036E-002,0,-33.119346244485200,0,2.0196568779749873,0,3.3145406196045530,0,160.16305595946295,1.9836937416207880,3.4904385942335860,0.43793143070327256,0.41810833509350404,0.26396566704287405,0.19329675480630837,18.264612393407059,1.0402629735990669,153.86041920566947,1351.0000000000000,2442.0000000000000,6421.0000000000000,94.226710335937511,76.197999999999993,21.002666666666698,5.9027419138805772,22.164571280585392,0.40816866101161470
20210819050000,403.35464160254577,19.940048610406187,5.6294949608094433E-002,0,-44.765935931132645,0,0.41607394702594219,0,10.933422868898294,0,179.01288370508999,2.2576664471789369,4.0695802855073735,0.50365042509292579,0.45594645741935480,0.30319802717630351,0.22527000006665446,21.390148547226374,0.88825937594826565,98.727124997273052,180.50467189655225,216.01799072369985,270.42889075878509,94.240362265407981,77.803333333333327,20.577666666666687,5.3625233366944531,21.732325046115420,0.38344184906183931
20210819053000,404.37067033587243,19.867108093168586,4.7697556134071131E-002,0,-40.085498971574800,0,-1.0177423149031228,0,11.521730536578698,0,174.02365162376043,2.2097110527822208,3.9999676777032360,0.50219400803075531,0.44802114881544308,0.32519430547620681,0.20725531816583498,18.602448765507038,1.0213709087176797,165.74608461142830,1474.0000000000000,2674.0000000000000,7075.0000000000000,94.239446740668399,78.869000000000000,20.297666666666657,5.0176178015661321,21.433145370483430,0.32664091177950516
20210819060000,405.51379846960299,19.802607556452806,4.7811022354571360E-002,0,-31.296968130503934,0,-1.6214474351704740,1,5.9584861605392314,0,164.95180266073820,2.2141925901876984,4.4398328679199146,0.55134302773309307,0.52173777585406411,0.33463193035520450,0.20740632705744247,23.875760207173048,0.79578617958693465,85.400142900215783,156.13869820019482,186.85814336567594,233.92422209990406,94.227484742621527,80.073333333333338,19.997999999999990,4.6447592319079902,21.111411763509068,0.38680207897126828
20210819063000,409.36937137876521,19.681025438706705,7.8876101308390165E-002,0,-50.135831293595253,0,-3.9837484016140463,0,10.437935928539611,0,171.37641002324636,2.0578560177191023,4.5966264435169819,0.63362403944067880,0.51707099231074083,0.37576633984128038,0.26629299283693353,31.541689248085390,0.60237737587733409,95.062316070658113,173.80423234784203,207.99927590003307,260.39041133487046,94.218952834635417,80.785333333333341,19.754333333333307,4.4116678618365839,20.873751620822475,0.37101533826340566
20210819070000,413.01451111816084,19.591843795177812,3.3251546420758130E-002,0,-22.072638955183347,0,-0.96979525149565615,0,5.5195456052955709,0,188.86069632581535,2.1372507404297418,3.4173760280712604,0.39744948468517671,0.39887032280287077,0.25244754562183508,0.17273195294254187,19.553756702148899,0.97168029087279972,219.04947265736430,2041.0000000000000,3752.0000000000000,-9999.,94.226171707248255,83.140000000000001,19.220333333333315,3.7446470138646943,20.318727025350029,0.37711263924043520
20210819073000,411.54584392125247,19.475867121149250,3.2233307816395995E-002,0,-25.976699214670376,0,0.70276703282191888,1,5.4963920744480390,0,189.40098065017668,2.2495413661787902,3.8271298106998377,0.38455079650143442,0.36707387523113888,0.24357878423589491,0.17001119530542505,15.840896388350137,1.1994270737086041,250.78047102423281,2305.0000000000000,4221.0000000000000,-9999.,94.218685050181648,83.683333333333337,19.019333333333350,3.5788441908327444,20.128119433094525,0.38894807649495472
20210819080000,412.22903052408685,19.335677794186225,2.2510164385338087E-002,0,-19.932935465375390,0,-0.69657190418392534,1,3.6513140216689481,0,183.76432521524433,1.9993635733905575,3.4147567364239064,0.37966319798790854,0.31614758166322454,0.19495129837014705,0.14203073154456183,12.036003449353501,1.5785970883067968,283.47909626663733,2522.0000000000000,4577.0000000000000,-9999.,94.214947020833336,83.983333333333334,18.845666666666659,3.4751593001682251,19.960245507134346,0.31948518443690643
20210819083000,412.13859994143115,19.092378194425564,2.4546313156005063E-002,0,-19.892840613929220,0,1.2349731058132314,2,4.4231553758310245,0,168.28670988153394,1.9194016183187979,3.5229032480748250,0.41057022862260473,0.45085355156249335,0.24344269687747416,0.14831144720396985,13.729885932620039,1.3838425237648189,240.82620561251471,2146.0000000000000,3897.0000000000000,-9999.,94.200430417317705,83.086666666666673,18.812333333333356,3.6620752758730806,19.893816965739006,0.30722105544144473
20210819090000,415.43548143843856,19.000866656402675,3.7854692314081902E-002,0,-25.217874647338391,0,-1.4990172525776073,0,3.6263693435540967,1,162.66742495915113,1.9245226539102982,3.6055962422846277,0.41557039496405612,0.48579227999391617,0.25768209752346877,0.18412171606811667,20.721141137700162,0.91693791735394781,159.54454915404295,1433.0000000000000,2607.0000000000000,6931.0000000000000,94.193159704159839,83.700000000000003,18.616666666666674,3.4863533471433814,19.673945848448284,0.33872610229860767
20210819093000,420.42607318836320,19.041195983641686,4.4213333780949743E-002,0,-37.169851783308104,0,-7.0264807612287941,0,8.7159654972688312,0,174.54369665767260,2.0559038617927836,4.0787824344647765,0.45781452932458722,0.50717967647182161,0.32601330581869581,0.19884405171730152,17.707445650079976,1.0729949635572755,155.98816163121552,1366.0000000000000,2468.0000000000000,6478.0000000000000,94.193786818262339,86.103333333333339,18.199000000000012,2.8955004382662266,19.253917886501540,0.39423850448952841
20210819100000,425.87699546899199,19.175489116914779,5.2251865658231061E-002,0,-24.623298341810280,0,-6.5859879950405151,0,3.2578355206105458,0,156.13525000967977,1.8527526910759597,3.5879229414884057,0.53443782628307879,0.40264328015039358,0.28163311232399657,0.21603549949728720,34.278163314810726,0.55428874136294759,101.28101038608764,185.17398890727358,221.60597062532855,277.42437850180681,94.185327686414936,88.866666666666674,17.807000000000016,2.2632498725978851,18.858535821702787,0.31118371227039543
20210819103000,428.63842671441301,18.918620173435357,4.7300299560679770E-002,0,-23.077216701896567,0,-5.5884839420414885,0,2.6776312955443236,0,131.95997424508604,2.0391156768271648,3.6639793178594622,0.50190701431838980,0.77460044603308764,0.25731379233268303,0.20537674838408221,31.420562532392498,0.60469954923347635,104.55034404115401,191.15137352922432,228.75937337246933,286.37958988757725,94.178858891276050,90.290000000000006,17.340333333333319,1.9166328976542333,18.349238572862419,0.42904092585228154
20210819110000,436.90973245130414,18.833175484301364,4.0308227307202210E-002,0,-23.540571281969541,0,-5.0572490605583136,0,-0.50769279350498331,2,139.23839698628365,1.8399409991907112,3.5771841110842617,0.55128526854137871,0.36284838596411312,0.25358515860446229,0.18935759505962094,24.143895178811249,0.78694841322349895,138.75520697016455,1246.0000000000000,2266.0000000000000,6024.0000000000000,94.192287194661461,93.746666666666670,16.678333333333342,1.1836167972494991,17.689510769314268,0.23341034739522670
20210819113000,440.14349784625540,18.975722891483425,1.6451957357907630E-002,0,-1.3937732224781598,2,-1.1737681125208645,0,-0.66050805193135154,2,165.29691915294947,1.5830528160345467,2.6942976882913436,0.28996227746564346,0.40938101774560309,0.13559211540003679,0.12100322517277592,106.44773487399367,0.17849135091968882,197.93764842485734,1760.0000000000000,3192.0000000000000,8444.0000000000000,94.237398222439239,92.956666666666663,16.937999999999988,1.3553011178004795,18.001409496731185,0.25840442110099193
20210819120000,426.21611587208884,18.913624696494441,3.0845028417639666E-002,0,-25.674499424433204,0,-4.4575014030890481,0,9.3489089313820841,0,180.59894276363721,2.2310892246631151,3.7099554843871552,0.41649276134429269,0.41069251610570506,0.25464042387707397,0.16580572833023935,14.870707768690266,1.2776796031190800,259.42550499440637,2370.0000000000000,4333.0000000000000,-9999.,94.267224413411455,89.653333333333336,17.463000000000022,2.0581924597680041,18.512689997355210,0.33746176924543470
20210819123000,414.88760117507599,19.092170740134645,5.1718178548906861E-002,0,-17.735577008802416,0,6.7195227501572399,0,1.2723069012487820,1,177.98401023449594,2.0539913314437106,4.0643916320126703,0.50133292412560126,0.43583150277247462,0.31258791860526464,0.21494571466224704,46.905315873932850,0.40507135803255628,92.798334485315280,169.66495194994295,203.04561445071278,254.18901502317306,94.275388008817885,86.736666666666665,18.138666666666666,2.7530878754872741,19.192254553849011,0.26581627850676787
20210819130000,408.70490197003488,19.485776719885557,8.8048443709843272E-002,0,-0.27410190597855189,2,23.638165480546764,0,-3.4869769595576119,1,185.35873105036455,1.9358681236934363,3.9150630338872525,0.58114040070009643,0.49039873410406110,0.37375931691721065,0.28081310644488178,6768.3542159907456,2.8071816860753343E-003,99.612806696570118,182.12398051655728,217.95588956465355,272.85491014821713,94.283221555989584,84.636666666666670,18.857000000000028,3.3357655347911508,19.939516252305907,0.27141193158981541
20210819133000,402.54392743857306,19.889069250209975,0.14957417572000770,0,2.5765273755390186,1,49.342873274915114,0,-5.1544051269402491,0,193.73043896130460,2.2031792516392477,4.8449018442588647,0.76532991795755279,0.61535101199955033,0.48020488319460553,0.36661350691310901,-1602.2912925320195,-1.1858018631540627E-002,100.89750131314487,184.47281200798881,220.76684095996359,276.37388773551834,94.273878477647571,81.670000000000002,19.757666666666637,4.2094196407369324,20.872047298855193,0.21563605890292017
20210819140000,399.60613675211448,20.448377702263109,0.17654581225366550,0,12.938373750044411,0,64.266962287065240,0,-3.9861207859076937,1,202.56140781971766,2.1752482426669251,5.2804186977131762,0.76667011487218761,0.63615930243398811,0.51468394135267181,0.39904902996216673,-411.45044914095047,-4.6178100035300179E-002,102.15118591920496,186.76494731006397,223.50994149702282,279.80792409976539,94.248433866102445,79.095333333333329,20.720333333333315,5.0949727575936823,21.901887423197422,0.31801451254545898
20210819143000,393.32251698450796,20.876419610339930,0.35079411187561033,0,52.719712566457687,0,155.04946762818048,1,-11.946288016398565,0,210.99997866742956,2.6955283001762282,6.1544125450896203,1.1011567031299796,0.90365579320948253,0.64606275032454574,0.56383491487072601,-284.79284578264719,-6.6715159040549518E-002,112.29404104712447,205.30932138162680,245.70282096145840,307.59077568635911,94.213193704797632,74.831000000000003,21.956666666666649,6.6171142723794061,23.142622191792555,0.32884031116194895
20210819150000,395.48401236193649,20.309187555602154,0.40025702663649781,0,86.740173617735394,0,183.08878552333795,0,-14.634787723261622,0,213.16304874338846,2.9900443599475919,7.1187667439492444,1.1450660672428326,1.0134230447289361,0.72134084732443804,0.60289415626026344,-211.55793772985615,-8.9809913085188015E-002,108.47641871099466,198.32949018298615,237.34974569044797,297.13371665902429,94.188443791449657,70.200666666666663,22.549333333333323,8.1221678974099696,23.628754723442967,0.29944240815962170
20210819153000,396.23851104917082,20.721854644557432,0.32686791791677366,0,93.827670471027076,0,157.80548201406498,0,-13.903653668493064,0,211.34440703572332,2.7416457029511032,6.4336024019413935,1.1803148998969724,0.84167897939824776,0.64603894522556360,0.54541178385708911,-144.80077387561036,-0.13121476834317031,109.35220728834925,199.93071102083093,239.26599807583983,299.53263725475477,94.177831616753480,69.245333333333335,23.105666666666650,8.6699042906692476,24.215577230665417,0.36186934922863878
20210819160000,392.21606752604680,21.479293832429153,0.23408723989475375,1,118.28831456220122,0,183.59042549056556,0,-19.996269676443422,1,221.80929536229098,2.3514604229275773,5.5513185550690824,0.94668696316592993,1.1300931613032903,0.62902373199687323,0.46215576089534749,-69.887264629422290,-0.27186641372713088,97.848004211053990,178.89735871814972,214.09444736266585,268.02084272672926,94.172396005859383,68.956666666666663,23.769333333333350,9.1086116706104381,24.945766598171701,0.41989651003784828
20210819163000,388.13525772959696,21.854288692765646,0.29697323250603536,0,119.42135682316572,0,196.87563668724061,0,-14.212006314034983,0,231.63013612346779,2.0287244513528204,6.3466440708711520,1.1077184781301741,1.2312251935893372,0.66817957159285379,0.52114032907171515,-99.251192351964789,-0.19143346845267267,102.63703348022398,187.65323160473881,224.57299092677414,281.13873583977971,94.155568792751737,67.731999999999999,24.353333333333353,9.8056709364619561,25.480368810017922,0.37341766378486663
20210819170000,387.09812895160161,21.836339622384003,9.8632507093566996E-002,0,73.116397737320284,0,150.54528060167138,0,-14.840499336586507,0,242.19082196563960,1.8982702434430256,5.4563779023149923,0.90342661559266813,0.79583110136251256,0.47730542653914365,0.30038646902688199,-31.039737943349447,-0.61211856990148739,86.449422206298593,158.05711542218472,189.15399880980263,236.79836067983291,94.137055880991994,67.479666666666674,24.398666666666657,9.9092090617761368,25.578662356255791,0.36482009989295039
20210819173000,386.54404617261252,22.041827881280181,0.10860044236723319,1,77.164064081029409,0,164.51187121666109,0,-12.772320383684391,0,240.86420192514925,1.2387386112222367,4.0632927109669783,0.76429693438096014,0.85431654940651780,0.51290744704964164,0.31550684283013319,-34.077142311471718,-0.55755848968602761,84.884954902958853,155.19677023042487,185.73089615762157,232.51304235943982,94.118733279799869,66.103666666666669,24.896999999999991,10.640629744533399,26.052964648731972,0.34042585748018456
20210819180000,386.42004597890264,22.008836466975168,0.14757689851444433,1,139.23252053340164,0,224.94873567261718,0,-18.311819892217194,0,239.78879926154826,1.3343734683540325,5.0174625673439275,0.87466920958060401,0.95639480673131927,0.53056979280444994,0.36820291302605340,-30.010375198157352,-0.63311437709604534,93.482573470406493,170.91595904152118,204.54275042766247,256.06325160969618,94.087040660590290,63.783333333333331,25.466666666666697,11.761010444091495,26.583219317966098,0.47208068436231804
20210819183000,387.75306989638915,21.377365707239687,0.19782529593444687,1,96.421211269378304,0,189.06916526388352,0,-14.231495937725871,0,247.51391087785876,1.6712305962766241,4.2797759680335918,0.83124922222407582,0.74403226270721523,0.48355413996920565,0.42635736064217949,-67.272186526296437,-0.28243470267720483,113.21861220659184,206.99973233798030,247.72581113923113,310.12331933218320,94.082006197916670,61.469000000000001,25.598000000000013,12.610472761052286,26.668221920437304,0.38910005313607426
20210819190000,386.60799907738868,21.746589864863274,0.22251145370548175,0,89.464302230689555,0,181.72424420011808,0,-10.993114004095080,0,156.60133896226833,1.4075307552269420,5.4020827100373827,1.1564416288755894,0.95430051205012201,0.52396913798776201,0.45263064047413387,-86.744000008343249,-0.21903532230670172,111.37955889755294,203.63735635308754,243.70190584812366,305.08586740168892,94.062996129561270,60.707666666666668,26.094333333333338,13.243132672709880,27.129745516293269,0.44229656221702773
20210819193000,386.43246913619083,21.711372407265728,0.14804886850959978,0,82.196870524928244,0,189.30762489387817,0,-12.424548393694499,0,177.48152693980245,1.9640253618345205,5.8749902104764917,0.99905886915463415,0.89479769716975821,0.54363089884487437,0.36937809252245518,-51.306477793826673,-0.37032360857728047,91.915446388013351,168.05075092535870,201.11382809697972,251.77064774240714,94.049942825520830,59.750666666666667,26.333666666666659,13.758726190461180,27.380790952894472,0.36581026129338862
20210819200000,387.43015109589294,21.224322829778220,0.18780983127343337,1,90.688088093034509,0,207.04751448066730,0,-8.1191695706557923,0,187.17000129682245,1.7157842124344143,5.7822847111142890,0.93460041583364717,1.1585533811952660,0.60985452630947201,0.41651214788391244,-66.650504298942082,-0.28506911087695369,92.294545733393392,168.74386543624831,201.94330914259839,252.80905958172013,94.015688369791661,56.241999999999997,26.970333333333315,15.529138388335610,27.901091367933532,0.38911806290027523
20210819203000,388.09061067499090,21.314994917635190,0.15698835974418923,0,88.896266671471381,0,229.69890164754923,0,-9.7264833038732199,0,191.01698014168480,1.9833843107805984,5.4584531065124313,1.2367325646632146,0.95325711799205914,0.57922955179676994,0.38083795587974256,-51.969000374464599,-0.36560256812897651,89.529572610745930,163.68861272510077,195.89346277691280,245.23536983276756,93.994452262152777,56.554666666666670,26.944666666666649,15.394961985115698,27.848822687784832,0.33617670093699581
20210819210000,389.44265354001175,20.797925836350100,0.20428971810163243,1,123.29864460704415,0,309.45548826060343,0,-11.738977923327566,0,170.23901311165281,1.4992073832907025,4.8840610006777387,0.92702323040111390,1.0727986816763124,0.60429447223513222,0.43469085220107267,-55.704853944650011,-0.34108338240827202,96.205611239642408,175.89454055203743,210.50084094829032,263.52207392878114,93.975700886284727,54.063666666666663,27.290666666666652,16.611272693788983,28.085841835021938,0.37190037560118649
20210819213000,390.60641229640157,20.026820503613042,0.33160927804868989,0,61.817809353021524,0,197.66760480341432,0,-9.5883335903019216,0,174.77389763160662,2.1417535647730719,6.6268724519783149,1.0518018977206434,1.0931800534213463,0.69235959399909375,0.55398952462998530,-229.92394919733647,-8.2636019720124493E-002,104.75886159491434,191.53261012076103,229.21561620335467,286.95075177210191,93.957279874565984,51.411333333333332,27.501333333333321,17.788324122540249,28.276068871392170,0.26937776346426090
20210819220000,390.81370721983484,19.965017473782204,0.17976349931606228,0,37.256527569667185,0,204.25792020818744,0,-7.0918314249723098,0,187.79485228722888,1.9690610324248383,6.5338102774408169,0.90481342194934200,0.91910563265046774,0.61137020498237782,0.40777380069741220,-152.12227688679494,-0.12489952417777220,90.562194831468076,165.57657548254650,198.15287200515888,248.06388207527920,93.942441900907099,51.866000000000000,27.295333333333360,17.410739462295901,28.101346833799823,0.18049395946865235
20210819223000,390.25422370174800,19.949045461855533,0.30660073918530056,0,19.760987949828358,0,146.82521980381776,0,-7.5187160854829509,0,191.78631392007912,2.5972633632359052,6.7676817825488573,1.0740792980023963,0.96879100603281931,0.66350700417478015,0.53242005655120295,-638.34461160916169,-2.9764487166429005E-002,104.99823921823729,191.97026876177262,229.73938181706893,287.60644416818343,93.932288816840270,52.337666666666664,27.125333333333344,17.069250299616954,27.963718932257734,0.13166665121605095